Mountain Home AFB, ID

12:43 AM MST on February 23, 2017 (GMT -0700)
Mountain Home Air Force Base

Weather History for KMUO - April, 2013

Change the Weather History Date:

Saturday, April 27, 2013

  Actual Average Record
Temperature  
Mean Temperature 59 °F 52 °F  
Max Temperature 79 °F 66 °F 88 °F (1987)
Min Temperature 38 °F 38 °F 20 °F (1918)
Degree Days  
Heating Degree Days 6 13  
Month to date heating degree days 449 439  
Cooling Degree Days 0 0  
Month to date cooling degree days 0 0  
Growing Degree Days 8 (Base 50)    
Moisture  
Dew Point 28 °F    
Average Humidity 30    
Maximum Humidity 62    
Minimum Humidity 14    
Precipitation  
Precipitation 0.00 in 0.04 in 0.48 in (1940)
Month to date precipitation 0.42 0.93  
Sea Level Pressure  
Sea Level Pressure 30.11 in    
Wind  
Wind Speed 6 mph (NNW)    
Max Wind Speed 21 mph    
Max Gust Speed 24 mph    
Visibility 10 miles    
Events      
T = Trace of Precipitation, MM = Missing Value Source: NWS Daily Summary

Daily Weather History Graph

Daily Weather History Graph

Search for Another Location

Airport or City:

Trip Planner

Search our weather history database for the weather conditions in past years. The results will help you decide how hot, cold, wet, or windy it might be!

Date:

Astronomy

Apr. 27, 2013 Rise Set
Actual Time 6:42 AM MDT 8:40 PM MDT
Civil Twilight 6:11 AM MDT 9:11 PM MDT
Nautical Twilight 5:34 AM MDT 9:48 PM MDT
Astronomical Twilight 4:53 AM MDT 10:29 PM MDT
Moon 11:17 PM MDT (4/27) 8:02 AM MDT (4/27)
Length of Visible Light 14h 59m
Length of Day
13h 57m
Waning Gibbous, 95% of the Moon is Illuminated
Apr 27
Waning Gibbous
May 2
Last Quarter
May 9
New
May 17
First Quarter
May 24
Full

Hourly Weather History & Observations

Time (MDT) Temp. Windchill Dew Point Humidity Pressure Visibility Wind Dir Wind Speed Gust Speed Precip Events Conditions
12:58 AM 48.2 °F - 27.0 °F 44% 30.17 in 10.0 mi NE 3.5 mph - N/A   Clear
1:58 AM 46.9 °F - 24.8 °F 42% 30.16 in 10.0 mi East 3.5 mph - N/A   Clear
2:58 AM 45.9 °F - 25.2 °F 44% 30.16 in 10.0 mi East 1.2 mph - N/A   Clear
3:58 AM 45.0 °F - 26.1 °F 48% 30.17 in 10.0 mi ESE 1.2 mph - N/A   Clear
4:58 AM 44.2 °F - 28.9 °F 55% 30.17 in 10.0 mi NNE 2.3 mph - N/A   Clear
5:58 AM 41.2 °F - 25.7 °F 54% 30.19 in 10.0 mi East 2.3 mph - N/A   Clear
6:58 AM 39.2 °F 35.0 °F 27.0 °F 62% 30.19 in 10.0 mi ESE 5.8 mph - N/A   Clear
7:58 AM 48.2 °F - 28.8 °F 47% 30.20 in 10.0 mi West 3.5 mph - N/A   Clear
8:58 AM 56.5 °F - 28.8 °F 35% 30.21 in 10.0 mi West 4.6 mph - N/A   Clear
9:58 AM 61.7 °F - 30.4 °F 31% 30.20 in 10.0 mi WNW 5.8 mph - N/A   Clear
10:58 AM 67.5 °F - 31.8 °F 27% 30.20 in 10.0 mi NW 4.6 mph - N/A   Clear
11:58 AM 71.6 °F - 31.8 °F 23% 30.19 in 10.0 mi NW 5.8 mph - N/A   Clear
12:58 PM 75.0 °F - 32.5 °F 21% 30.17 in 10.0 mi Variable 4.6 mph - N/A   Partly Cloudy
1:58 PM 76.6 °F - 29.3 °F 18% 30.14 in 10.0 mi North 6.9 mph - N/A   Partly Cloudy
2:58 PM 77.5 °F - 28.4 °F 16% 30.12 in 10.0 mi WNW 9.2 mph 19.6 mph N/A   Partly Cloudy
3:24 PM 78.8 °F - 26.6 °F 15% 30.13 in 10.0 mi WNW 20.7 mph 24.2 mph N/A   Clear
3:58 PM 78.8 °F - 26.2 °F 14% 30.07 in 10.0 mi NNW 16.1 mph 21.9 mph N/A   Partly Cloudy
4:58 PM 78.4 °F - 25.9 °F 14% 30.05 in 10.0 mi WNW 9.2 mph - N/A   Clear
5:27 PM 78.8 °F - 26.6 °F 15% 30.07 in 10.0 mi NNW 16.1 mph 21.9 mph N/A   Clear
5:35 PM 78.8 °F - 26.6 °F 15% 30.08 in 10.0 mi North 11.5 mph 21.9 mph N/A   Clear
5:58 PM 77.7 °F - 27.0 °F 15% 30.04 in 10.0 mi North 13.8 mph - N/A   Partly Cloudy
6:58 PM 75.6 °F - 28.2 °F 17% 30.03 in 10.0 mi North 12.7 mph - N/A   Clear
7:58 PM 73.9 °F - 27.0 °F 18% 29.99 in 10.0 mi North 10.4 mph - N/A   Partly Cloudy
8:58 PM 70.2 °F - 26.4 °F 19% 29.99 in 10.0 mi WNW 2.3 mph - N/A   Clear
9:58 PM 64.8 °F - 26.4 °F 23% 30.00 in 10.0 mi West 4.6 mph - N/A   Clear
10:58 PM 59.7 °F - 25.3 °F 27% 30.00 in 10.0 mi WSW 5.8 mph - N/A   Clear
11:58 PM 54.3 °F - 30.9 °F 41% 29.99 in 10.0 mi Calm Calm - N/A   Clear